Theta_e
322 322 321 320 320 320 320 320 319 318 318 319 319 323 320 318 317 315 317 318 319 321 323 323 324 324 322 320 319 320 321 323 324 324 323 322 324 326 326 329 329 329 330 331
319 322 323 322 322 321 321 320 319 319 318 321 321 319 319 318 318 318 317 318 318 319 322 323 324 323 322 318 320 323 321 323 325 325 325 324 323 324 324 326 327 329 335 331
316 320 321 323 323 322 321 320 316 319 319 319 321 321 320 319 317 318 317 317 319 320 320 320 320 322 322 320 319 318 320 324 325 330 328 326 327 326 325 326 330 330 331 329
313 315 317 320 322 322 321 321 317 319 320 320 323 322 320 321 320 318 318 319 319 319 319 319 322 320 321 320 319 321 323 326 324 326 326 326 326 326 326 325 327 329 328 328
310 313 316 317 317 318 320 316 314 317 319 321 321 321 322 323 321 320 319 320 320 321 323 321 322 322 322 321 322 324 324 327 325 327 325 324 325 325 325 325 326 327 328 330
306 307 310 314 316 316 314 315 314 315 316 318 322 322 322 322 321 320 319 320 321 323 323 321 321 321 320 321 322 324 323 324 325 328 325 325 330 327 326 326 326 328 331 330
301 305 306 307 308 309 312 313 315 316 316 317 319 321 322 323 324 324 320 319 320 320 320 319 319 318 319 319 320 321 323 323 323 325 324 327 327 325 326 327 327 327 328 328
299 299 300 304 305 306 307 310 312 312 317 318 318 319 320 322 323 324 324 321 319 319 320 317 318 314 317 319 319 321 322 322 322 324 325 325 326 325 325 326 328 325 326 326
299 299 300 299 300 303 303 305 306 306 309 311 313 318 319 322 323 323 322 322 322 321 319 314 321 321 321 323 322 320 321 321 322 319 325 328 327 323 323 325 331 324 324 325
301 300 300 300 300 300 300 301 304 303 302 304 308 312 315 317 319 319 318 320 320 320 318 318 320 322 322 325 326 325 322 322 322 322 323 325 324 322 321 326 327 323 322 322
301 301 300 300 300 301 300 300 300 302 301 302 305 306 307 309 308 318 312 316 314 317 321 320 316 320 321 323 324 326 324 323 323 323 324 326 322 323 324 324 322 320 320 320
300 300 300 300 300 300 301 301 300 300 301 300 302 303 304 305 304 303 304 306 309 307 316 319 316 315 317 321 326 323 324 324 324 324 324 323 323 323 321 320 322 319 315 314
300 299 300 300 300 300 301 302 301 300 299 299 299 300 301 301 302 303 302 302 302 301 300 302 307 310 310 317 320 323 319 320 322 322 323 323 321 320 316 315 315 313 311 311
299 300 300 300 300 300 301 302 300 300 300 302 302 299 300 300 301 301 302 302 302 302 300 301 303 307 303 311 311 316 319 318 319 320 319 317 316 317 317 315 311 311 312 312
299 299 299 299 300 300 301 301 301 301 301 302 301 299 299 300 300 301 302 302 302 301 301 302 306 304 305 304 305 309 312 316 317 318 315 316 316 314 313 311 313 313 313 312
299 300 301 301 301 300 300 298 300 301 300 301 303 299 298 299 300 301 301 302 303 301 300 302 301 302 306 310 311 309 310 312 312 313 310 309 310 311 312 310 310 309 309 308
299 300 301 301 301 301 300 299 299 300 300 300 302 302 297 298 299 300 302 302 302 301 300 301 303 302 303 305 308 307 308 308 308 310 308 308 308 309 310 310 309 307 306 306
299 299 300 300 301 300 299 300 299 300 300 299 302 301 300 298 299 300 300 301 300 300 300 299 303 304 302 306 305 305 305 305 305 306 306 305 305 306 307 305 304 304 303 302
299 299 299 300 300 299 299 299 299 299 299 301 300 301 303 298 299 300 299 299 300 300 302 304 303 305 306 305 305 304 304 304 304 304 304 304 305 305 305 304 303 302 300 299
300 299 299 298 298 299 299 299 299 299 298 299 302 300 301 299 299 300 300 299 302 303 303 301 304 304 303 303 303 303 304 303 303 304 304 303 303 304 304 303 302 301 299 298
298 297 296 297 298 299 298 298 300 298 300 298 299 300 300 298 301 301 300 301 302 303 303 303 303 304 303 302 302 301 301 301 301 302 302 303 303 303 302 301 300 299 299 298
298 298 298 298 298 298 300 300 299 300 301 298 299 299 299 298 300 301 300 301 300 302 300 300 302 303 300 299 299 299 299 299 300 301 302 301 300 300 299 299 298 298 297 297
298 298 297 299 297 300 301 300 300 301 300 298 298 299 299 296 299 301 300 300 301 299 299 300 301 301 299 298 299 299 299 299 299 299 299 299 298 298 298 298 298 297 296 295
298 299 299 300 299 300 300 300 301 299 299 298 299 299 300 299 300 300 301 300 299 299 299 300 302 299 298 298 298 297 297 298 298 298 298 298 297 296 295 295 294 293 292 292
297 297 300 298 297 296 296 297 298 297 297 298 299 299 299 300 300 300 299 298 299 299 300 302 299 296 297 297 297 296 296 296 296 295 295 295 295 294 293 292 292 291 291 290
297 297 297 296 298 298 296 297 297 297 298 298 299 299 300 300 300 299 299 299 299 300 301 297 296 296 296 295 295 295 294 295 294 293 293 292 292 292 291 290 289 289 288 288
297 299 297 298 297 299 298 297 297 297 297 300 300 299 300 299 299 299 299 300 301 299 296 296 295 295 294 294 295 294 294 293 292 291 290 290 290 289 288 288 287 287 287 286
Wind_Speed
58 57 55 53 51 50 49 36 8 27 42 16 17 19 26 21 20 15 8 5 13 14 11 11 14 13 7 11 11 9 11 5 11 20 5 5 10 17 18 12 15 13 15 17
45 56 56 57 55 57 56 27 19 29 49 14 16 18 28 26 17 22 11 11 12 11 11 9 12 10 5 10 11 10 9 8 11 15 13 8 10 14 17 19 18 25 18 8
28 50 46 58 57 60 53 23 7 13 43 45 28 26 25 30 29 22 25 11 12 10 13 12 9 9 5 6 10 3 8 15 15 16 19 14 14 13 18 20 17 20 25 29
31 27 37 45 56 62 56 24 8 15 11 23 27 25 18 26 26 33 28 23 24 21 16 19 20 16 8 3 4 6 6 20 22 24 24 21 22 28 27 28 24 26 33 34
27 37 35 33 40 44 39 15 8 14 9 26 29 25 34 30 26 21 24 28 25 23 26 24 19 19 11 15 10 7 9 15 15 27 24 24 33 33 28 32 33 36 36 45
23 26 28 35 38 45 24 9 23 10 9 6 21 31 28 31 20 28 36 32 27 30 33 38 32 13 12 15 19 18 10 5 9 25 20 19 27 23 33 36 32 34 33 41
21 26 28 25 26 28 25 20 14 14 5 8 10 14 20 21 25 22 28 35 28 39 24 28 20 11 15 19 22 24 12 14 11 6 3 14 16 10 11 17 25 27 33 34
26 25 23 24 25 20 9 13 13 8 4 11 21 24 18 22 27 23 27 34 37 35 30 2 3 2 3 15 23 24 21 16 5 6 10 22 35 21 14 14 31 25 27 28
26 25 23 23 21 23 24 19 9 2 4 4 3 14 21 16 15 15 21 26 24 21 7 4 10 8 7 8 6 28 26 22 13 5 7 16 30 4 9 19 28 17 25 24
24 23 24 24 26 24 23 20 27 9 2 1 4 2 3 7 8 4 4 13 11 22 8 8 8 9 10 10 15 7 16 16 22 19 11 14 23 7 11 14 6 5 11 18
23 23 25 25 26 27 26 24 23 21 5 6 7 4 3 4 3 7 3 4 8 7 9 5 4 6 9 9 26 20 16 10 14 16 15 23 11 18 24 15 16 11 11 16
22 24 25 27 28 30 30 22 24 23 9 3 9 9 8 3 2 4 3 4 2 5 4 7 4 4 5 11 14 19 12 14 12 14 12 16 10 21 26 30 23 13 9 7
21 23 25 26 27 30 34 23 28 26 12 7 15 17 14 14 10 11 2 3 4 5 8 3 1 6 3 6 12 14 9 8 13 8 18 21 14 18 9 9 14 12 8 6
21 25 28 29 29 29 34 28 34 27 10 4 3 12 16 19 21 18 19 14 14 13 6 1 2 3 3 1 4 4 5 4 10 11 14 7 10 14 16 16 12 10 9 9
20 22 26 29 31 31 34 33 29 26 12 3 2 4 8 12 20 20 19 18 13 8 2 3 3 2 3 1 1 3 3 3 4 2 4 5 3 2 10 14 16 14 14 17
16 19 22 25 31 33 30 8 33 30 20 3 3 3 4 8 9 13 16 17 13 8 4 2 4 5 6 4 4 9 18 18 16 2 1 8 10 12 11 12 13 15 16 20
17 18 21 26 32 37 26 8 16 36 27 4 2 3 1 6 6 7 9 13 11 11 5 6 4 6 8 3 6 15 18 18 14 8 7 12 15 16 17 22 20 17 21 19
18 20 21 25 33 30 16 11 23 37 15 6 3 3 5 8 5 4 7 6 7 7 5 4 3 3 4 5 17 32 27 26 20 15 21 29 29 25 23 16 13 14 13 11
26 27 25 32 24 7 13 22 34 26 8 7 5 6 4 8 4 3 2 3 3 5 3 4 6 5 7 12 15 24 27 18 20 17 20 25 23 23 23 18 14 13 12 12
30 33 9 5 11 29 39 17 9 7 3 2 3 5 4 8 8 5 2 4 4 4 5 4 4 9 32 28 22 24 18 14 19 20 21 16 19 17 15 14 11 13 13 17
15 5 5 29 22 8 4 4 3 3 3 5 5 11 5 6 5 4 4 2 2 3 3 3 3 5 5 7 9 11 11 15 19 20 20 15 13 9 10 15 16 20 17 15
7 23 23 9 4 3 2 3 4 4 4 7 6 8 5 6 5 4 4 3 2 5 4 3 3 4 4 7 9 9 10 9 7 6 6 3 3 6 13 17 17 16 14 12
22 8 4 2 2 3 5 7 3 4 7 10 10 6 7 4 5 2 4 5 4 2 3 4 4 3 7 7 4 3 3 4 6 10 9 10 12 13 15 15 14 14 14 11
3 2 4 3 3 3 2 2 3 3 4 13 12 7 3 4 5 3 4 2 3 4 4 5 2 4 6 3 1 5 8 9 13 14 14 13 12 14 13 14 13 12 12 11
2 1 1 1 3 3 3 4 6 4 12 15 8 6 3 3 3 3 2 4 5 4 3 1 4 4 2 2 5 8 12 14 14 14 15 16 17 17 17 14 12 9 9 8
2 2 2 3 2 3 3 4 7 9 14 10 4 3 3 4 3 5 7 3 5 2 0 0 1 1 1 5 8 9 11 13 15 14 15 15 15 14 13 12 9 7 6 4
1 2 2 3 1 1 4 6 6 12 15 4 3 6 5 3 3 4 4 4 0 2 1 1 2 4 6 8 10 13 14 13 11 12 13 14 13 12 10 9 7 5 3 1
Wind_Direction
192 194 191 187 185 185 182 176 192 187 183 181 210 220 211 211 204 204 233 251 229 211 196 197 208 213 229 181 159 181 211 249 242 242 223 298 282 263 244 248 265 238 263 267
203 198 192 188 185 185 179 182 177 187 184 197 208 217 222 229 210 205 203 209 217 208 205 210 203 199 214 186 185 186 180 216 247 244 230 220 241 240 250 261 265 261 266 251
193 185 182 191 190 188 181 178 166 176 196 210 205 203 216 215 219 218 212 215 208 197 213 227 216 209 185 188 225 281 191 244 238 248 255 264 246 226 245 253 256 270 253 268
193 191 186 190 193 193 185 191 196 189 202 206 211 205 205 215 214 214 209 226 220 209 224 224 229 228 198 175 205 227 218 249 254 254 261 271 271 265 260 255 255 256 272 270
176 195 201 191 196 203 184 170 155 172 209 203 203 204 214 210 207 200 213 223 213 223 227 221 226 232 207 224 207 221 210 258 278 271 277 277 268 259 259 261 258 263 270 269
192 188 191 194 190 200 203 167 205 166 168 188 194 213 217 217 201 212 211 212 218 220 226 231 241 237 209 226 243 247 225 232 243 257 256 275 268 254 248 251 252 250 256 265
221 214 207 199 193 185 193 196 174 185 208 215 216 198 205 211 209 208 205 214 214 220 238 241 252 252 227 232 239 238 227 228 231 262 132 226 245 246 225 250 249 245 253 261
216 214 222 218 219 199 172 175 186 195 175 197 225 230 221 222 223 222 220 211 217 219 226 109 152 195 197 230 232 224 223 228 230 223 215 270 271 259 246 236 257 244 254 258
219 213 208 215 227 218 217 227 216 101 114 201 228 215 216 224 226 235 243 234 222 208 196 180 203 203 185 206 234 210 219 221 217 188 223 242 264 200 255 229 263 236 247 249
215 211 210 210 207 221 226 227 227 217 117 175 140 149 205 197 178 213 190 205 204 200 190 213 209 216 194 225 223 160 206 211 215 220 232 258 260 199 138 201 244 172 241 244
205 207 208 207 207 207 211 215 218 201 159 146 185 141 119 55 25 214 120 132 214 188 220 217 208 226 202 237 240 225 189 189 215 224 223 244 225 230 212 235 276 283 252 249
201 205 206 208 206 205 205 202 211 221 219 180 201 215 218 199 9 42 27 355 17 0 251 214 182 199 200 219 243 224 221 209 206 202 225 243 251 235 236 241 256 258 239 236
203 205 202 206 204 205 205 207 190 185 188 234 245 241 237 250 273 281 333 347 26 52 16 336 356 266 131 208 234 248 227 232 234 220 227 247 253 239 233 222 234 229 190 196
208 210 208 206 203 202 202 207 187 176 146 219 222 222 223 223 220 241 267 263 280 277 302 186 254 275 355 312 315 286 237 194 231 251 261 263 255 239 244 252 211 213 225 240
206 210 205 204 201 197 203 213 205 202 192 175 159 193 212 213 216 209 218 231 219 215 188 204 226 254 275 228 304 253 262 267 231 274 321 245 303 249 223 233 246 252 257 263
191 193 192 194 192 184 177 168 196 187 191 153 167 197 173 194 192 199 211 223 205 203 199 212 226 228 223 239 231 250 246 247 238 217 38 320 300 290 260 265 263 265 270 270
169 171 174 174 177 186 182 176 174 180 180 141 163 176 81 144 162 190 204 210 219 220 218 212 217 215 204 257 233 254 243 245 244 219 253 256 248 252 264 249 249 263 271 265
157 155 156 160 172 182 163 152 167 168 160 157 202 146 168 168 162 171 191 193 206 217 225 229 206 205 213 245 237 251 257 258 262 244 235 251 267 265 257 258 249 257 244 233
149 160 157 157 164 133 137 138 155 164 161 173 195 172 147 157 140 125 159 208 228 214 236 222 195 202 220 234 241 247 262 245 242 257 242 252 252 257 257 253 246 224 186 161
154 146 121 106 131 131 141 136 148 161 184 160 193 168 142 151 164 160 198 189 236 236 205 165 225 252 249 259 260 263 263 267 263 256 246 257 256 254 246 232 221 195 173 161
133 82 77 123 121 114 87 128 139 133 148 168 185 206 146 181 156 160 218 251 230 262 146 242 239 259 301 313 286 279 287 273 261 255 260 261 264 252 204 195 189 176 166 152
142 133 131 97 105 92 121 106 128 200 184 164 177 177 146 139 139 167 168 236 224 247 123 228 248 269 318 333 333 325 308 288 272 256 240 214 201 202 195 173 153 139 128 121
109 108 128 148 88 158 185 172 184 189 171 172 166 152 135 125 177 158 192 220 227 100 218 235 247 344 333 320 324 2 61 109 125 125 143 149 143 142 145 146 148 154 155 155
130 140 128 229 167 220 185 181 137 103 149 152 159 123 118 126 177 166 220 187 170 234 228 231 220 6 340 342 100 117 109 123 122 123 129 118 112 107 115 122 124 133 141 145
73 80 124 136 80 78 112 116 116 101 145 147 115 87 155 150 182 204 195 200 229 235 248 48 13 342 357 128 143 141 131 120 113 119 123 123 126 127 124 126 132 142 147 153
75 86 116 133 177 155 170 150 126 140 147 134 106 143 185 193 199 191 208 212 223 218 244 190 272 203 169 157 162 142 133 126 117 115 122 127 129 129 130 129 126 127 129 135
116 115 82 167 123 134 176 178 171 163 161 182 172 193 184 125 207 214 198 223 197 112 194 258 209 187 163 149 142 137 131 129 125 125 127 129 125 121 119 119 117 115 111 76